Home   Weather   Washington DC   Past weeks
Flag for USA

Past Weather in Washington DC, USA — Yesterday and Last 2 Weeks

Now
86 °F

Light rain. Partly sunny.


Feels Like: 92 °F
Forecast: 89 / 68 °F
Wind: 8 mph from Southeast

Location: Reagan National Airport

Current Time: May 26, 2019 at 3:53:51 pm

Latest Report: May 26, 2019 at 2:52 pm


Visibility: 9 mi

Pressure: 29.96 "Hg

Humidity: 61%

Dew Point: 71 °F

Location of Washington DCLocation

Past Weather in Washington DC — Graph

°F

Washington DC Temperature Yesterday

Maximum temperature yesterday: 81 °F (at 2:52 pm)
Minimum temperature yesterday: 67 °F (at 5:52 am)
Average temperature yesterday: 73 °F

High & Low Weather Summary for the Past Weeks

 TemperatureHumidityPressure
High90 °F (May 20, 3:56 pm)94% (May 18, 6:52 am)30.29 "Hg (May 18, 6:52 am)
Low50 °F (May 13, 2:26 am)27% (May 15, 2:52 pm)29.74 "Hg (May 12, 2:52 pm)
Average67 °F66%29.95 "Hg
* Reported May 11 1:52 pm — May 26 1:52 pm, Washington DC. Weather by CustomWeather, © 2019

Note: Actual official high and low records may vary slightly from our data, if they occured in-between our weather recording intervals... More about our weather records

Advertising

Washington DC Weather History for the Previous 24 Hours

Scroll right to see more
 ConditionsComfort  
Time TempWeatherWind HumidityBarometerVisibility
1:52 pm
Sun, May 26
89 °FPartly sunny.13 mph50%29.97 "Hg10 mi
12:52 pm86 °FPartly sunny.8 mph53%30.00 "Hg10 mi
11:52 am88 °FScattered clouds.9 mph52%30.01 "Hg10 mi
10:52 am86 °FScattered clouds.12 mph53%30.02 "Hg10 mi
9:52 am80 °FScattered clouds.7 mph69%30.03 "Hg10 mi
8:52 am76 °FScattered clouds.5 mph80%30.04 "Hg10 mi
7:52 am73 °FScattered clouds.5 mph84%30.03 "Hg10 mi
6:52 am71 °FPassing clouds.3 mph87%30.02 "Hg10 mi
5:52 am69 °FScattered clouds.5 mph90%30.02 "Hg10 mi
4:52 am70 °FPassing clouds.5 mph87%30.01 "Hg10 mi
3:52 am70 °FPassing clouds.3 mph87%30.00 "Hg10 mi
2:52 am71 °FMostly cloudy.No wind87%30.01 "Hg10 mi
1:52 am71 °FPassing clouds.No wind87%30.01 "Hg10 mi
1:24 am70 °FPassing clouds.3 mph90%30.02 "Hg10 mi
12:52 am71 °FThunderstorms. Mostly cloudy.3 mph84%30.03 "Hg10 mi
12:42 am71 °FThunderstorms. Mostly cloudy.10 mph84%30.04 "Hg10 mi
12:00 am72 °FPartly cloudy.12 mph78%30.02 "Hg10 mi
11:31 pm
Sat, May 25
71 °FThunderstorms. Partly cloudy.6 mph78%30.05 "Hg10 mi
10:52 pm71 °FPartly cloudy.8 mph78%30.05 "Hg10 mi
10:37 pm71 °FThundershowers. Passing clouds.10 mph78%30.05 "Hg10 mi
9:52 pm72 °FPassing clouds.14 mph76%30.06 "Hg10 mi
9:38 pm72 °FLight rain. Partly cloudy.10 mph76%30.06 "Hg10 mi
9:22 pm72 °FThundershowers. Partly cloudy.10 mph76%30.06 "Hg10 mi
8:52 pm73 °FPartly cloudy.13 mph71%30.06 "Hg10 mi
7:52 pm74 °FBroken clouds.9 mph71%30.06 "Hg10 mi
6:52 pm75 °FBroken clouds.10 mph69%30.06 "Hg10 mi
5:52 pm77 °FBroken clouds.10 mph64%30.05 "Hg10 mi
4:52 pm81 °FPartly sunny.9 mph54%30.07 "Hg10 mi
3:52 pm81 °FScattered clouds.13 mph56%30.09 "Hg10 mi
Weather by CustomWeather, © 2019

See weather overview